Flag Weather past 2 weeks in Chalon-sur-Saône, France

Now
54 °F

Fog.


Feels Like: 54 °F
Forecast: 47 / 57 °F
Wind: 2 mph from Southwest

Location: Dole Tavaux

Current Time: Nov 26, 2014 at 5:33:17 PM

Latest Report: Nov 26, 2014 at 5:00 PM


Visibility: 2 mi

Pressure: 29.89 "Hg

Humidity: 94%

Dew point: 52 °F

Location of Chalon-sur-SaôneLocation

Historic Weather in Chalon-sur-Saône — Graph

°F

Chalon-sur-Saône temperature yesterday

Maximum temperature yesterday: 54 °F (at 11:30 AM)
Minimum temperature yesterday: 46 °F (at 8:30 AM)
Average temperature yesterday: 50 °F

Past Weeks' High & Low Weather Summary

 TemperatureHumidityPressure
High66 °F (Nov 23, 2:30 PM)100% (Nov 12, 10:00 AM)30.21 "Hg (Nov 12, 10:00 AM)
Low37 °F (Nov 21, 6:00 AM)60% (Nov 23, 4:00 PM)29.56 "Hg (Nov 16, 2:30 PM)
Average49 °F90%29.90 "Hg
* Reported Nov 11 4:00 PM — Nov 26 4:30 PM, Chalon-sur-Saône, Weather by CustomWeather, © 2014

Note: Actual official high and low records may vary slightly from our data, if they occured in-between our weather recording intervals... More about our weather records

Advertising

Chalon-sur-Saône weather history for previous 24 hours

 ConditionsComfort  
Time TempWeatherWind HumidityBarometerVisibility
4:30 PM
Nov 26
54 °FFog.No wind94%29.89 "Hg2 mi
4:00 PM54 °FFog.No wind94%29.89 "Hg2 mi
3:30 PM54 °FFog.2 mph94%29.89 "Hg2 mi
3:00 PM54 °FFog.3 mph94%29.89 "Hg2 mi
2:30 PM54 °FFog.2 mph100%29.89 "Hg2 mi
2:00 PM54 °FFog.No wind94%29.92 "Hg2 mi
1:30 PM54 °FFog.No wind94%29.92 "Hg2 mi
1:00 PM54 °FFog.5 mph94%29.92 "Hg2 mi
12:30 PM54 °FFog.2 mph94%29.92 "Hg2 mi
12:00 PM54 °FFog.3 mph94%29.95 "Hg2 mi
11:30 AM54 °FFog.1 mph94%29.95 "Hg2 mi
11:00 AM52 °FFog.2 mph100%29.95 "Hg2 mi
10:30 AM52 °FFog.2 mph94%29.95 "Hg2 mi
10:00 AM50 °FFog.3 mph100%29.95 "Hg2 mi
9:30 AM50 °FFog.1 mph94%29.95 "Hg1 mi
9:00 AM50 °FFog.2 mph94%29.95 "Hg1 mi
8:30 AM50 °FFog.2 mph94%29.95 "Hg1 mi
8:00 AM48 °FLight rain. Fog.No wind100%29.95 "Hg1 mi
7:30 AM48 °FRain. Fog.2 mph100%29.95 "Hg1 mi
7:00 AM48 °FFog.3 mph100%29.95 "Hg0 mi
6:30 AM48 °FFog.3 mph100%29.95 "Hg0 mi
6:00 AM48 °FFog.2 mph100%29.95 "Hg0 mi
5:30 AM48 °FFog.2 mph100%29.95 "Hg0 mi
5:00 AM48 °FFog.3 mph100%29.95 "Hg0 mi
4:30 AM48 °FFog.3 mph100%29.95 "Hg0 mi
4:00 AM48 °FFog.2 mph100%29.95 "Hg2 mi
3:30 AM48 °FFog.1 mph94%29.95 "Hg2 mi
3:00 AM46 °FFog.No wind100%29.98 "Hg0 mi
2:30 AM48 °FFog.1 mph94%29.98 "Hg2 mi
2:00 AM48 °FFog.2 mph94%29.98 "Hg3 mi
1:30 AM48 °FFog.3 mph94%29.98 "Hg3 mi
1:00 AM48 °FClear.2 mph94%29.98 "Hg4 mi
12:30 AM50 °FClear.2 mph88%29.98 "Hg5 mi
12:00 AM48 °FClear.2 mph94%30.01 "Hg5 mi
11:30 PM
Nov 25
50 °FClear.3 mph88%30.01 "Hg5 mi
11:00 PM50 °FClear.5 mph88%30.01 "Hg5 mi
10:30 PM48 °FClear.5 mph94%30.01 "Hg4 mi
10:00 PM50 °FClear.5 mph94%30.01 "Hg5 mi
9:30 PM50 °FClear.5 mph88%30.01 "Hg5 mi
9:00 PM50 °FClear.6 mph94%30.01 "Hg6 mi
8:30 PM50 °FLight rain. Clear.5 mph94%30.01 "Hg4 mi
8:00 PM50 °FFog.2 mph94%30.01 "Hg3 mi
7:30 PM50 °FFog.2 mph94%30.01 "Hg3 mi
7:00 PM50 °FFog.2 mph94%30.01 "Hg2 mi
6:30 PM50 °FFog.3 mph94%30.01 "Hg3 mi
6:00 PM50 °FFog.2 mph94%30.01 "Hg2 mi
5:30 PM50 °FFog.No wind94%30.04 "Hg3 mi
5:00 PM52 °FFog.2 mph88%30.04 "Hg3 mi
Weather by CustomWeather, © 2014

See weather overviewHow to use our weather pages